Wind_Speed
11 12 11 11 11 10 10 9 8 7 7 7 7 7 6 7 7 8 8 8 7 6 5 5 5 5 5 5 6 6 6 7 8 9 9 10 11 12 12 12 14 19 22 23 25 26 26 26 25 24 23 22 22 21 21 20 19 20 20 18 16 15 15 16 17 17 17 16 16 16 16 16 16 17 18 19 21 22 22 22 22 23 24 27 30
8 12 13 11 11 10 10 9 8 8 7 7 7 7 7 7 8 8 8 8 7 6 6 5 5 5 5 5 5 5 5 5 7 8 9 10 12 12 13 13 14 19 22 24 25 27 27 26 25 24 23 23 22 22 21 21 20 19 19 18 16 15 14 15 16 16 15 14 14 15 15 16 16 17 18 20 21 22 22 22 23 23 24 26 28
8 11 13 12 12 11 10 9 9 8 7 7 7 7 8 8 9 9 9 8 7 7 6 6 5 5 5 5 5 5 5 4 4 6 8 10 12 13 13 13 15 19 22 24 25 27 27 26 26 24 23 23 22 22 21 21 20 19 19 18 16 15 14 15 15 15 14 13 13 13 13 15 16 17 18 20 21 21 22 22 23 23 24 25 26
10 11 13 14 13 11 10 9 9 8 7 7 8 8 8 9 9 9 8 8 7 7 6 6 6 5 5 6 6 5 5 5 4 4 6 9 11 13 14 14 15 19 22 24 25 27 27 27 26 25 24 23 22 22 22 21 20 19 19 18 16 15 15 15 15 14 14 12 11 12 12 13 15 16 18 20 20 20 22 22 23 24 24 25 25
12 11 12 14 13 11 9 8 8 8 8 8 8 8 9 9 9 9 8 7 7 7 6 6 6 6 5 5 5 5 5 5 5 5 5 7 10 13 15 16 16 18 22 24 25 26 27 27 26 25 24 23 23 22 22 21 20 19 19 18 17 15 15 15 14 14 12 11 10 10 10 12 14 16 17 18 19 19 20 22 23 24 25 25 25
11 12 12 13 12 11 9 8 8 8 8 8 8 9 9 9 9 9 8 8 7 6 6 6 6 6 5 5 4 4 4 5 5 5 6 7 9 11 14 16 17 18 21 23 25 26 27 26 26 25 24 24 23 23 22 22 21 20 19 19 17 16 15 14 14 14 11 10 10 9 9 10 12 14 16 17 17 18 19 21 23 24 25 25 25
13 12 12 12 11 10 9 8 9 9 9 9 9 10 10 10 9 8 8 8 7 6 6 6 6 6 5 5 4 4 4 4 5 6 7 8 9 11 13 14 17 18 20 22 24 26 27 27 26 25 24 24 24 23 22 22 21 21 20 19 18 16 15 14 14 13 11 9 9 8 8 9 11 13 14 15 16 17 18 20 22 23 24 25 25
14 13 12 12 11 10 9 9 10 10 10 10 10 10 10 10 9 8 8 8 7 6 6 6 6 5 5 5 4 4 4 4 4 5 7 8 10 11 13 13 16 18 19 21 23 26 27 27 26 26 25 24 24 24 23 22 22 21 20 19 18 17 16 14 13 13 11 8 8 7 6 8 10 12 13 14 15 15 17 19 20 22 23 24 25
15 13 12 12 11 10 9 10 10 11 11 10 10 10 10 10 9 9 8 8 7 6 6 7 6 5 5 5 4 4 4 3 4 5 7 9 10 12 13 13 15 17 19 21 22 25 27 27 27 26 25 25 25 25 24 23 22 21 21 20 19 18 17 15 14 13 11 8 7 6 6 7 9 10 11 13 14 14 16 18 19 20 22 23 24
15 14 13 12 11 10 10 10 10 10 10 10 10 10 10 10 9 9 9 8 7 7 7 7 6 5 4 4 4 4 4 4 4 4 6 9 11 12 13 14 14 15 18 21 22 23 25 27 27 27 26 25 25 25 24 23 23 22 21 21 20 19 17 16 15 13 12 10 8 6 5 5 7 9 10 12 13 13 15 17 18 19 20 22 23
12 13 14 12 11 10 10 10 10 10 10 10 10 10 10 9 9 9 8 8 7 7 7 6 5 4 4 4 4 3 4 4 4 5 6 8 11 13 14 15 15 16 16 19 22 23 24 26 27 28 27 25 25 25 25 24 24 23 22 21 21 20 19 17 15 14 13 11 8 7 5 4 6 8 9 12 13 12 13 16 17 18 19 20 22
14 14 14 14 12 11 11 10 9 9 9 9 9 9 9 9 9 8 8 7 7 6 6 5 4 3 3 2 2 2 3 4 5 5 6 6 9 11 14 16 17 17 16 17 20 22 23 25 26 27 27 26 25 25 25 25 25 24 23 22 22 21 20 18 17 15 13 12 10 7 6 4 4 6 7 10 12 12 13 14 16 18 18 19 20
18 17 14 14 14 12 11 10 9 9 9 9 9 9 9 9 8 8 7 7 6 6 5 5 4 2 2 1 1 2 3 4 5 6 6 6 7 8 10 14 17 19 18 17 18 20 23 24 25 27 27 27 25 25 25 25 25 25 24 24 23 22 21 19 18 16 14 13 11 9 8 6 3 4 5 7 10 11 12 13 14 16 17 18 19
17 16 16 16 16 14 12 10 9 9 8 8 8 9 9 9 8 8 7 6 5 5 5 4 3 2 1 1 2 3 3 4 5 6 6 6 6 6 7 9 14 17 19 19 18 19 21 24 25 26 27 27 26 25 25 25 25 25 25 25 24 23 22 20 19 17 16 14 13 11 9 7 4 2 2 5 8 10 11 12 12 13 15 17 18
14 15 16 16 16 15 12 10 9 8 8 8 8 8 8 8 8 7 6 5 5 5 5 4 3 2 1 2 3 4 4 4 5 6 6 5 5 5 6 7 9 13 17 19 19 18 19 22 24 25 26 27 27 26 26 25 25 25 25 25 25 24 22 21 20 18 17 15 13 12 10 8 5 3 0 2 5 8 10 11 11 12 13 14 16
14 15 15 14 14 14 12 10 8 7 7 7 7 8 8 8 8 7 6 5 5 5 5 4 4 3 2 3 4 4 4 5 6 6 6 6 6 6 6 7 7 10 14 16 17 17 17 19 22 24 25 26 27 27 27 26 25 25 25 26 26 25 23 22 21 20 18 16 14 12 11 8 7 5 3 2 4 7 8 10 10 10 11 12 14
13 13 12 15 14 12 9 6 4 5 6 7 8 8 8 8 8 7 6 6 6 6 6 5 4 4 4 5 5 5 5 5 6 7 7 7 7 6 7 7 8 9 11 13 14 15 15 16 19 21 23 25 26 27 27 27 26 26 26 26 27 27 24 23 23 21 20 18 15 13 12 10 9 8 6 5 4 6 7 9 10 10 10 11 12
11 8 10 13 13 10 6 3 5 6 8 9 9 9 9 9 8 8 7 7 7 7 6 6 5 4 5 5 6 6 5 6 6 7 8 8 8 7 8 8 9 10 10 11 12 12 12 13 16 19 21 24 26 27 27 27 27 27 26 27 28 27 25 24 24 23 22 20 18 16 14 13 11 10 9 8 6 6 7 8 9 9 10 10 10
11 11 14 12 12 10 7 8 10 12 12 11 10 10 10 9 9 8 7 7 7 7 6 6 5 5 6 6 6 7 7 7 7 7 7 8 8 8 8 9 9 10 10 10 11 11 10 11 12 15 18 21 24 27 27 27 28 28 28 28 29 28 26 25 25 25 24 22 20 19 17 15 14 13 12 11 9 8 8 8 8 9 9 9 9
11 14 15 13 11 10 10 12 14 14 13 11 11 10 10 9 8 7 7 7 7 7 6 5 5 6 7 7 7 8 8 8 8 7 7 7 8 8 8 9 9 9 9 10 10 11 11 11 11 13 15 18 21 25 28 28 28 28 29 29 30 29 27 26 26 26 25 24 23 21 20 18 17 16 14 13 13 11 9 8 8 9 9 9 9
15 14 13 12 11 12 13 14 15 13 12 11 11 10 9 8 7 7 7 7 7 6 5 5 5 6 7 7 8 8 9 10 9 7 6 7 7 7 8 8 9 9 9 9 10 11 11 12 12 13 14 16 18 22 27 29 29 29 29 30 31 30 28 27 27 27 27 26 25 24 22 20 19 18 17 16 15 13 11 10 9 9 9 9 9
14 15 15 15 15 16 16 15 13 12 11 10 9 8 8 7 7 7 6 6 5 5 4 4 5 6 7 8 8 9 10 11 10 8 7 6 7 7 7 7 8 9 9 10 10 11 12 13 13 13 14 16 18 20 24 28 29 29 29 30 31 32 29 27 27 28 28 27 26 25 24 22 21 20 19 17 16 15 13 12 10 9 9 8 8
14 18 19 19 19 17 15 14 12 11 10 9 8 7 7 7 7 7 6 5 5 4 4 4 6 7 8 8 8 9 11 11 11 10 9 7 7 7 7 7 8 8 9 10 10 12 12 13 13 13 14 16 18 20 22 26 29 30 30 30 31 32 30 28 28 29 28 28 27 26 25 24 22 21 20 19 17 16 15 14 12 10 9 8 8
19 19 19 18 17 15 13 12 11 10 9 8 8 7 7 7 7 6 5 5 5 5 4 6 7 8 9 9 9 10 11 11 11 10 9 8 8 7 7 7 7 8 9 10 10 11 11 12 12 12 13 14 17 20 22 24 27 29 30 30 31 31 30 29 29 30 29 29 28 27 26 25 23 22 21 20 18 17 16 15 14 12 10 9 9
20 18 17 15 14 13 11 10 9 9 8 7 7 7 7 7 7 6 6 5 6 6 6 7 8 9 10 10 9 11 11 11 10 10 9 9 9 7 7 7 7 8 8 9 9 10 10 10 10 10 10 11 14 17 20 22 24 27 29 29 30 31 31 31 30 30 30 30 29 28 27 26 24 23 21 21 19 18 17 16 15 13 12 11 10
18 16 15 13 11 9 7 7 6 6 7 6 7 7 7 7 8 7 6 7 7 7 8 8 9 11 12 11 11 11 11 11 10 10 9 9 8 7 8 8 8 8 8 8 9 9 9 9 7 6 7 7 9 12 18 21 22 25 28 29 29 31 32 31 31 31 31 31 30 29 28 27 25 24 22 21 21 20 18 17 17 15 14 12 11
16 14 13 11 8 5 3 5 6 7 7 7 7 8 8 8 9 8 7 8 9 9 10 10 11 12 12 12 12 12 12 12 11 9 9 8 8 8 9 8 8 8 8 9 9 9 9 8 6 5 5 5 5 7 13 19 21 23 26 27 28 30 32 30 30 31 31 31 30 29 29 28 26 24 24 22 22 21 20 19 18 17 15 14 13
17 15 14 12 9 7 6 8 8 8 8 7 8 8 8 9 10 10 9 10 11 12 12 12 12 13 13 13 12 13 13 13 11 10 9 9 9 9 9 8 7 7 9 9 9 9 9 8 7 6 5 5 4 4 8 15 20 21 23 25 26 29 30 29 29 30 31 30 30 29 29 28 27 25 24 23 21 21 21 20 19 18 17 16 15
20 16 13 13 11 10 11 11 10 9 9 8 8 9 10 10 11 12 11 12 13 14 14 13 13 13 14 14 13 13 13 12 11 10 10 10 10 10 9 8 8 8 9 9 9 10 9 8 8 7 6 5 5 4 5 10 15 19 22 23 25 28 29 27 27 28 29 30 29 28 28 28 27 26 25 24 21 21 21 20 19 19 18 17 16
20 17 12 12 15 16 14 13 12 10 9 8 8 9 9 10 11 12 12 13 14 16 15 14 13 13 14 15 14 14 13 11 10 10 11 11 11 11 11 10 10 9 9 9 9 9 9 9 9 8 7 7 6 5 5 6 10 16 20 21 23 25 27 27 27 27 28 29 28 27 26 26 26 25 24 23 22 21 21 21 20 19 19 18 17
18 16 10 9 16 19 15 13 10 8 7 6 7 7 7 8 10 11 11 12 14 16 16 14 13 13 14 14 14 14 13 11 10 11 12 12 12 12 12 11 11 10 10 10 9 9 10 10 9 9 9 8 6 6 6 6 8 11 15 19 22 24 26 27 27 27 27 28 27 26 25 25 24 22 22 22 22 20 19 19 19 19 18 18 17
16 15 10 9 12 13 12 11 8 7 5 3 3 4 5 7 9 10 11 12 13 15 15 15 14 14 13 13 13 14 13 11 11 12 13 12 12 13 13 12 11 10 10 11 10 10 10 10 9 10 11 9 6 6 6 8 9 10 12 15 19 23 25 26 27 27 26 26 26 25 24 24 22 21 21 21 20 19 18 18 18 18 18 18 18
19 16 10 10 8 8 10 10 8 6 3 1 1 3 5 6 8 10 11 11 12 14 14 14 15 15 14 14 14 14 13 11 11 13 13 12 12 12 13 13 13 12 12 12 11 9 9 9 9 11 12 11 8 7 8 9 10 11 12 13 16 19 21 23 25 27 27 26 26 25 24 23 22 21 20 20 20 19 18 18 17 18 18 18 18
18 15 12 9 8 9 10 9 7 5 3 2 2 2 4 5 7 8 9 10 11 13 14 14 15 15 15 15 15 14 13 12 12 13 13 12 11 12 13 14 13 13 13 13 11 9 9 9 10 13 14 12 11 10 10 11 11 10 11 12 13 15 17 19 21 24 26 27 26 26 24 23 22 20 20 19 19 19 19 18 18 18 18 18 19
9 10 11 10 10 10 11 9 7 5 3 3 3 3 5 6 7 8 9 9 10 11 13 14 15 14 14 14 15 14 14 14 14 14 13 12 12 13 14 14 13 13 14 14 12 10 9 9 11 14 14 13 13 13 13 12 12 11 12 13 13 13 15 17 18 20 23 26 27 27 26 24 22 20 20 20 20 20 19 19 18 17 17 18 19
6 7 9 10 12 13 12 10 6 5 3 3 4 5 8 9 10 11 11 10 9 9 10 12 14 15 14 13 14 14 14 15 15 14 14 13 13 14 14 14 14 14 15 14 13 12 11 11 11 13 13 12 13 14 14 14 13 12 12 14 13 12 13 16 16 17 19 23 26 27 26 26 23 21 21 21 21 20 19 19 18 17 16 17 18
10 9 9 9 13 13 12 10 7 4 3 3 4 6 8 10 12 14 14 13 11 9 9 10 12 15 15 15 14 14 14 15 15 14 14 14 14 14 14 15 15 15 15 15 14 14 12 12 12 12 12 11 13 14 14 15 14 13 12 13 14 12 12 14 16 16 17 19 22 25 26 26 26 24 23 22 22 21 19 18 17 16 15 15 16
11 12 12 11 13 12 11 10 7 4 2 2 3 5 7 10 12 14 14 14 13 10 8 9 11 14 15 16 16 15 15 15 15 15 15 16 16 16 15 15 15 15 15 14 14 14 12 11 12 11 11 11 13 13 13 14 14 13 12 13 14 14 14 14 15 15 16 17 19 22 24 25 25 25 25 24 23 21 19 18 18 17 16 16 16
14 16 15 14 14 13 12 10 7 4 1 1 3 5 7 10 12 14 14 15 15 11 7 7 10 12 14 15 17 17 17 17 16 15 15 17 18 18 16 16 17 17 16 15 15 14 12 11 12 12 12 13 13 13 13 13 13 13 13 13 14 16 16 15 15 15 15 16 17 19 22 25 24 24 25 25 23 21 19 19 18 17 17 17 16
16 19 18 17 17 16 14 12 8 4 1 2 5 7 8 10 12 13 14 16 17 14 9 6 8 10 12 14 17 18 19 19 17 16 15 16 17 17 17 17 18 18 18 17 17 15 13 12 12 14 14 14 14 14 13 13 13 12 13 13 13 14 15 15 15 15 16 16 16 17 19 22 24 24 24 24 23 21 20 20 19 18 18 18 18
19 22 20 19 19 18 15 12 8 4 2 3 6 7 9 11 12 14 15 16 17 15 12 8 6 7 8 10 13 16 19 20 20 19 18 18 17 17 18 17 17 18 18 18 17 16 14 12 13 14 15 15 15 14 14 15 14 13 13 13 13 14 14 15 15 15 16 15 15 17 18 19 21 23 24 24 23 23 22 21 20 20 19 20 20
21 22 21 20 19 18 16 11 8 5 3 3 5 6 8 10 12 15 16 18 18 16 12 9 7 6 5 5 7 10 14 18 20 21 20 20 19 18 19 18 18 18 18 17 16 15 13 12 13 14 16 16 16 16 16 15 15 14 14 14 14 14 14 15 16 16 16 15 15 17 19 20 20 21 22 22 22 22 21 20 20 21 21 21 21
20 20 20 19 18 17 16 12 9 6 4 3 4 5 6 9 12 15 17 19 20 18 14 11 8 5 4 4 5 6 9 12 15 18 20 21 20 20 20 20 19 19 18 17 15 13 13 13 13 15 16 16 16 17 17 17 16 15 15 14 14 14 13 14 16 16 15 16 16 17 19 22 22 21 21 20 19 19 20 20 20 21 22 21 21
17 19 19 18 17 17 15 13 10 7 5 5 5 5 6 8 12 15 17 19 20 18 15 13 9 6 3 3 4 5 6 8 10 12 15 18 19 19 21 21 21 20 19 18 16 14 14 13 13 13 13 15 16 17 17 17 16 15 14 14 13 14 13 14 15 15 15 16 17 18 20 22 23 23 23 21 19 18 18 19 20 20 20 21 22
16 18 18 16 16 17 16 14 11 8 7 6 5 5 6 8 12 14 16 17 19 18 16 13 11 8 5 3 3 4 5 6 7 8 10 12 14 16 17 18 19 19 19 18 17 17 17 16 15 14 14 14 15 16 17 16 15 14 14 13 13 13 14 15 15 15 15 16 16 16 18 20 22 23 23 22 21 19 17 17 17 18 18 19 20
17 18 18 16 16 18 17 15 13 10 9 8 6 6 6 8 10 13 15 16 18 18 16 13 11 9 7 5 4 4 5 5 5 5 7 8 10 11 11 12 13 14 14 14 15 17 17 17 17 16 15 14 14 14 15 15 15 16 15 13 12 13 13 15 16 17 16 16 16 14 15 17 19 20 21 24 23 20 18 17 17 17 18 18 18
15 17 17 17 18 19 19 17 14 12 11 10 8 7 7 7 9 12 14 14 16 17 15 12 10 9 7 6 5 6 6 5 5 4 5 6 7 8 8 9 9 9 9 9 11 13 14 14 15 15 14 13 13 12 13 14 15 15 15 13 12 12 13 14 15 17 16 16 15 14 13 15 16 16 17 20 19 17 18 19 18 18 18 19 20
12 15 17 17 18 19 19 18 16 14 13 12 10 8 8 8 8 10 12 12 14 16 14 12 10 9 6 5 4 5 5 5 5 4 4 5 5 5 5 6 7 7 7 7 7 8 9 10 12 12 12 13 12 11 11 12 13 13 12 12 12 11 12 12 13 15 16 15 14 13 12 12 13 14 15 16 16 16 17 18 20 20 18 18 19
9 13 15 16 17 19 20 19 18 17 15 14 12 10 10 10 9 9 10 11 12 13 12 10 10 9 7 5 3 3 3 3 3 4 4 5 5 4 4 4 5 4 4 4 4 4 5 6 7 8 9 11 11 11 10 8 9 10 10 10 10 9 10 9 10 12 13 13 12 12 12 12 12 13 13 12 12 13 13 13 16 18 18 16 15
8 10 13 15 17 20 21 21 20 20 17 16 14 13 12 12 10 8 8 9 10 11 10 9 9 8 7 6 4 4 4 3 1 1 2 4 5 5 5 5 5 4 4 4 3 3 2 3 3 4 5 6 8 10 10 9 7 8 8 8 8 8 8 7 9 12 13 13 12 12 12 13 12 11 11 11 11 10 11 10 9 11 13 15 15
8 10 11 13 16 19 21 22 22 23 21 18 16 16 16 14 11 9 7 7 8 8 9 8 8 7 6 6 5 5 5 4 3 1 1 3 4 5 5 5 5 5 5 5 4 3 3 2 2 2 2 3 4 6 8 9 9 8 8 8 8 8 8 9 10 12 13 14 13 12 13 13 13 12 12 14 13 12 12 11 10 8 9 12 14
Wind_Direction
187 169 179 190 188 190 192 198 203 202 196 187 192 194 198 198 191 183 169 157 148 147 143 143 138 133 127 128 133 136 143 145 148 152 160 169 177 180 176 172 168 169 172 172 172 174 173 170 168 165 161 158 157 155 154 151 145 142 140 141 139 134 129 121 112 106 100 96 93 89 85 79 72 68 65 63 60 58 55 52 51 51 53 52 50
193 175 181 187 185 189 194 199 204 202 196 188 192 195 195 193 185 178 167 161 155 152 149 150 145 138 134 128 131 136 141 146 150 151 158 167 175 179 176 172 169 171 174 174 175 176 175 173 171 168 164 162 160 159 158 156 153 148 145 145 143 137 130 123 116 110 105 100 95 91 88 83 75 69 65 62 59 56 54 52 50 50 52 52 51
183 187 182 185 184 185 196 199 204 201 197 192 194 196 191 188 183 176 167 165 159 156 154 153 149 140 137 131 131 135 140 148 157 154 153 161 172 178 178 175 171 173 176 177 178 178 177 175 173 171 168 166 164 163 164 162 159 154 150 150 148 142 135 128 122 117 111 106 99 92 88 85 78 71 66 62 58 56 54 51 50 48 50 51 51
175 193 186 182 182 182 195 197 202 201 198 197 197 195 190 188 183 176 168 167 162 160 159 155 153 145 138 134 136 139 146 153 164 168 157 155 167 177 179 177 176 176 178 180 180 180 180 178 176 174 172 170 169 169 169 167 164 160 156 155 154 149 141 134 129 124 118 114 106 96 90 85 80 73 67 64 59 56 54 52 50 48 48 49 50
176 189 190 183 181 182 191 195 201 202 202 201 200 197 191 189 184 179 173 170 167 166 164 160 157 149 141 134 136 143 153 161 166 177 175 164 166 175 180 182 182 180 180 182 183 183 182 180 179 177 175 174 174 174 174 172 170 168 163 161 160 155 148 140 135 130 126 124 114 103 95 88 83 76 69 64 60 56 55 52 50 48 47 47 48
181 185 191 185 181 179 185 194 202 203 207 207 203 199 194 192 186 182 181 178 175 172 167 164 161 153 146 140 139 145 155 165 171 178 186 184 172 173 181 186 188 185 182 184 185 185 185 183 182 180 179 179 180 179 178 177 176 175 171 167 164 162 155 147 141 135 135 135 122 112 102 93 86 80 73 66 60 56 55 53 51 49 47 47 46
183 185 193 187 181 180 184 193 204 207 209 210 207 203 199 194 190 186 185 185 181 176 170 168 166 158 150 147 148 151 156 166 177 181 190 194 184 175 179 186 193 193 185 186 188 188 187 186 185 183 183 184 184 183 183 182 181 181 178 174 170 168 164 155 147 140 145 148 132 122 111 101 90 82 76 69 62 56 54 54 52 49 47 46 46
185 185 193 189 184 181 185 193 202 207 209 211 209 205 201 196 193 188 185 187 186 183 175 170 167 163 159 155 155 159 163 169 181 188 192 196 193 185 182 184 195 197 189 189 191 190 190 189 188 187 186 188 188 187 188 187 186 186 184 181 177 174 171 164 155 147 152 158 144 134 124 107 93 83 77 71 63 56 54 54 52 50 48 46 45
187 184 190 188 184 179 180 188 198 203 207 209 207 204 201 196 192 189 188 190 192 191 181 171 167 169 168 163 163 165 168 176 186 191 194 199 201 197 192 189 194 196 191 192 193 193 193 192 192 190 190 191 192 191 192 192 190 190 189 188 185 181 178 172 165 156 158 164 157 149 137 115 97 85 78 72 63 56 53 52 51 49 48 47 45
183 179 182 179 173 172 173 181 193 198 201 204 203 201 199 196 193 192 194 195 196 195 186 174 168 171 174 171 169 172 179 191 199 196 196 202 206 206 204 200 197 195 193 195 195 195 195 195 195 194 193 194 196 195 195 195 195 195 194 194 191 188 184 179 174 168 169 170 169 165 155 126 102 84 74 70 63 55 53 51 49 48 47 46 46
194 179 169 165 162 165 167 176 188 193 197 199 199 199 199 198 197 199 200 199 196 190 186 176 171 171 174 178 177 186 197 208 215 209 202 204 210 212 214 212 206 201 197 197 198 197 197 198 199 198 196 196 200 200 198 199 199 199 198 198 197 195 190 184 182 183 182 176 177 180 175 150 108 84 69 67 61 52 52 50 47 46 45 45 45
209 195 167 155 156 159 163 173 182 189 194 196 199 199 201 203 203 206 203 199 192 186 185 180 177 179 181 187 194 209 223 228 228 223 216 209 211 214 218 220 215 208 203 199 199 200 200 201 202 202 200 199 202 204 203 203 204 203 202 202 201 200 195 190 191 193 191 182 181 191 194 178 124 86 68 65 60 50 49 48 46 45 44 44 44
211 204 181 158 152 154 158 167 177 185 192 197 200 201 205 206 208 209 205 200 191 186 184 184 186 188 190 205 243 255 248 239 233 229 228 220 217 219 220 221 219 214 208 203 202 203 203 203 204 204 203 202 204 207 207 208 209 208 206 206 205 203 199 196 197 198 197 188 182 195 207 196 154 99 68 62 59 49 46 45 44 44 42 43 42
214 205 190 167 150 148 153 163 175 181 190 198 201 204 207 208 212 212 209 201 193 188 181 182 183 183 191 261 268 261 252 241 234 231 232 231 227 226 226 223 220 216 212 208 206 207 207 206 206 206 206 204 206 209 210 211 213 213 211 210 209 207 202 200 202 203 202 195 187 196 210 207 188 153 73 53 52 45 41 42 41 41 41 41 41
214 205 191 168 144 143 153 165 174 181 191 199 203 206 209 210 212 211 211 205 195 188 179 178 173 175 199 248 256 254 251 242 233 228 230 233 231 228 229 229 222 218 214 211 210 210 210 209 209 209 209 206 207 210 212 213 215 216 216 216 215 212 206 204 207 207 207 202 194 199 211 217 214 211 241 25 38 36 33 35 36 37 36 37 38
208 204 182 154 140 144 156 167 171 184 194 200 207 209 212 211 212 211 210 204 197 187 180 180 178 186 213 235 244 249 254 247 238 226 221 220 221 219 223 229 229 225 219 217 215 213 213 212 213 213 213 210 209 211 213 215 216 218 220 220 220 217 211 208 211 212 211 209 202 203 215 226 236 246 266 316 4 18 19 23 28 31 32 32 34
208 209 167 140 140 142 147 162 177 197 204 209 214 213 214 214 214 211 206 202 195 189 185 191 194 202 218 231 240 248 254 251 244 230 222 218 215 212 212 220 226 231 228 225 223 220 217 214 215 217 217 214 212 213 214 216 217 219 221 223 224 221 215 211 214 216 216 215 211 211 220 232 244 260 271 287 323 347 356 7 15 22 26 27 28
203 189 141 132 134 134 144 203 235 235 229 223 221 218 216 216 214 210 208 204 199 198 199 204 208 217 226 232 241 249 252 247 243 237 232 225 221 217 211 215 221 228 232 233 234 231 227 220 218 219 219 218 216 215 216 218 219 220 222 225 226 224 219 215 216 218 218 218 217 218 224 233 242 258 269 277 294 316 329 345 359 9 15 18 23
192 148 136 143 144 150 179 220 237 239 232 223 220 221 219 217 215 213 212 211 210 212 213 214 219 230 231 232 240 249 251 247 244 244 243 237 231 228 221 217 218 225 231 237 241 242 241 233 224 221 221 220 218 218 217 218 220 221 223 226 228 227 222 219 219 220 221 220 220 222 226 233 240 251 263 272 282 293 305 321 339 354 2 7 13
164 134 141 156 155 169 198 220 227 225 219 214 215 218 221 221 219 217 217 216 219 222 224 226 228 231 230 233 244 249 253 250 248 248 248 246 239 232 229 222 216 219 230 238 243 244 243 240 232 225 223 221 220 219 218 218 220 222 223 226 229 229 225 222 222 222 223 223 223 224 228 234 241 248 257 267 275 282 290 303 319 334 348 355 358
157 145 157 163 162 184 205 215 215 210 208 208 213 218 223 225 223 221 220 221 222 226 230 233 232 229 229 236 247 251 253 253 250 249 250 251 240 231 228 223 216 216 227 236 239 240 240 241 236 229 225 224 223 221 219 218 219 221 223 226 229 230 227 225 226 226 226 226 225 226 229 235 242 248 256 263 269 275 282 291 304 318 331 341 345
180 182 177 173 179 194 202 203 201 199 203 206 214 223 229 228 225 224 224 224 225 226 228 236 240 236 235 240 249 251 251 253 253 252 252 250 238 227 221 220 219 220 226 231 236 239 240 241 240 233 226 224 224 223 221 219 219 220 222 225 228 230 228 226 227 229 229 229 229 229 231 234 240 247 254 259 264 270 276 283 292 303 315 326 333
177 184 180 181 187 193 193 192 194 198 202 207 216 224 229 228 223 226 228 231 234 235 236 245 247 246 245 245 245 245 248 253 256 256 253 247 235 223 214 215 218 221 226 230 234 239 241 241 242 239 230 224 222 223 223 221 219 220 222 224 227 229 228 227 228 230 231 231 231 232 233 234 238 244 250 255 260 266 271 277 283 290 300 311 321
167 176 182 185 186 186 185 190 196 199 204 207 215 221 222 224 226 232 239 245 251 251 251 249 250 252 250 247 241 243 248 252 254 254 251 245 233 220 211 214 215 216 223 227 230 234 239 242 242 240 234 227 223 223 224 223 221 221 222 224 227 229 228 227 228 231 232 232 233 234 236 237 237 241 246 251 256 261 266 270 275 280 287 295 305
167 174 180 184 184 184 185 193 200 201 206 206 213 221 223 227 231 237 243 249 256 256 251 248 251 253 249 246 244 246 247 248 247 243 244 242 230 218 213 213 210 210 216 223 226 228 234 240 240 236 231 228 225 223 224 225 225 223 224 226 228 230 230 228 229 231 233 234 234 234 236 238 239 240 243 248 252 257 260 265 269 273 278 285 291
168 172 176 179 180 181 183 192 203 211 217 218 224 233 233 236 237 240 244 248 255 255 248 244 247 249 249 247 245 245 241 240 239 233 236 238 226 217 217 215 211 208 210 217 221 222 228 237 239 231 228 229 227 223 220 223 226 225 224 225 228 232 232 230 230 232 233 234 234 235 235 237 239 240 242 246 250 253 256 261 264 267 271 276 281
165 165 158 153 147 144 182 215 220 227 232 232 238 241 240 244 248 251 253 253 256 256 251 245 244 248 250 249 246 242 238 235 234 232 235 234 223 219 223 222 215 209 208 210 212 216 226 238 244 238 236 238 235 222 216 218 224 226 224 223 225 231 234 231 230 232 234 235 235 235 236 237 238 239 242 244 247 251 254 257 260 263 266 269 273
166 159 151 142 134 150 190 221 224 229 237 239 242 246 251 256 259 260 259 256 257 259 257 252 251 250 250 250 245 239 238 235 232 234 235 230 226 227 228 222 213 211 214 212 209 214 227 239 245 245 245 251 258 242 218 216 221 226 227 225 225 230 234 233 232 233 234 235 236 235 235 237 238 238 239 242 244 248 252 254 257 260 263 265 268
173 170 165 147 147 175 196 212 220 225 230 237 241 246 256 260 262 262 259 258 259 261 261 260 259 253 250 248 243 239 239 236 232 232 232 229 227 229 227 221 220 224 225 221 215 218 228 238 243 245 248 252 260 263 237 220 218 223 226 226 227 232 235 235 235 236 235 236 237 235 234 235 237 238 238 239 241 244 249 251 254 257 260 262 264
180 181 173 149 161 182 197 207 212 217 223 234 243 252 263 266 267 266 263 261 260 262 263 262 260 254 250 247 243 243 243 238 231 227 231 230 226 226 225 225 231 233 232 228 222 224 232 236 238 243 250 251 256 265 256 234 223 225 228 227 228 231 234 235 236 237 238 239 239 237 235 235 237 239 238 239 239 241 245 249 251 254 256 258 259
181 177 162 156 175 180 190 203 205 215 225 233 243 259 272 276 275 271 267 261 259 261 263 262 259 253 249 246 246 249 248 241 233 230 231 228 224 225 228 231 234 237 237 232 226 230 238 238 235 241 251 253 259 268 263 248 237 235 233 232 233 233 232 232 234 235 237 241 242 240 238 236 237 238 239 239 240 241 243 247 249 251 253 254 256
174 166 154 168 178 167 177 193 200 209 215 222 251 278 285 286 283 278 272 264 260 259 260 260 257 253 247 246 249 252 250 245 238 235 233 229 227 230 236 239 238 240 238 234 232 233 240 241 238 243 248 247 248 255 257 250 242 240 236 233 236 238 235 234 234 234 234 238 242 243 242 239 236 236 238 239 241 244 245 247 249 251 252 251 252
173 178 179 165 157 148 165 182 188 186 174 172 318 317 303 300 293 286 279 270 262 257 256 254 254 254 249 247 248 250 250 246 239 238 235 230 230 236 241 242 240 238 235 236 237 230 231 238 242 246 246 245 243 243 250 252 250 247 243 240 241 244 242 239 238 237 234 235 238 240 241 241 238 236 237 239 242 245 246 246 246 247 248 248 248
182 201 206 171 156 158 161 168 168 158 136 103 46 1 337 329 318 307 297 284 270 261 257 252 250 252 250 248 245 247 249 245 239 240 238 230 232 238 240 239 239 237 234 237 240 229 225 231 238 245 248 250 249 247 247 253 259 260 259 259 260 259 254 246 241 240 237 234 235 236 237 239 239 236 236 238 240 242 244 245 244 243 243 244 244
198 221 198 168 163 162 156 161 160 146 129 101 66 37 25 12 358 344 326 309 287 270 262 255 251 248 245 243 240 243 247 245 242 240 239 234 232 237 238 236 237 239 241 244 245 235 225 226 233 242 249 250 247 247 250 254 260 266 270 272 273 272 266 254 241 238 238 235 234 236 236 237 237 236 234 235 237 238 240 242 243 242 241 240 241
265 243 186 167 165 164 160 160 155 143 121 78 58 46 36 24 13 1 349 337 316 291 275 262 255 251 243 237 238 241 242 243 243 242 244 241 235 236 238 237 236 240 245 248 248 240 227 223 230 240 246 247 246 246 250 254 259 265 270 271 272 271 267 262 249 240 239 236 233 235 236 236 235 234 232 233 234 234 236 239 240 242 242 240 238
266 229 197 182 169 167 164 157 155 145 101 63 51 39 30 20 13 7 2 357 345 320 291 270 257 252 247 242 242 241 239 241 243 243 246 249 246 243 240 240 241 243 246 248 247 243 235 229 230 238 243 246 247 247 249 252 255 259 261 260 263 263 261 261 256 248 245 243 238 236 236 237 236 235 234 234 234 233 233 236 238 240 243 242 239
237 213 204 193 176 172 169 163 164 152 102 69 37 23 22 14 10 10 9 7 1 342 304 274 258 252 249 246 243 241 240 241 244 245 247 250 251 250 245 242 243 246 248 250 250 247 245 240 235 236 239 242 245 248 250 252 251 249 249 249 250 253 254 254 254 249 245 246 242 237 236 238 238 237 237 238 238 237 236 237 238 238 240 241 239
216 205 203 193 183 184 181 175 175 167 117 40 356 359 10 8 8 10 11 12 6 355 322 277 258 252 249 247 245 243 241 240 243 245 246 248 249 250 250 246 244 246 247 249 252 251 248 245 241 238 237 238 241 245 249 251 250 246 244 244 243 246 249 249 248 246 245 247 244 237 236 238 240 240 239 241 243 244 243 243 242 241 240 241 240
206 199 200 190 184 190 188 184 184 181 190 332 333 344 360 3 3 4 8 14 10 360 341 297 260 251 247 246 245 244 242 241 241 240 240 243 246 249 252 250 248 248 248 247 251 253 251 250 245 241 239 238 238 241 246 247 246 245 243 243 243 244 245 245 243 241 244 248 246 244 242 240 241 243 244 245 247 249 251 251 251 248 245 244 245
200 197 197 188 185 190 191 192 194 198 244 309 329 342 357 358 356 357 2 11 12 4 352 329 290 262 248 243 243 242 241 241 240 240 241 241 242 246 251 253 251 251 251 250 252 255 256 253 245 240 240 241 242 244 248 247 246 246 244 240 240 242 243 243 242 242 246 250 246 245 250 249 243 241 242 246 250 254 256 256 256 255 251 248 249
200 199 196 191 189 192 196 199 202 213 244 292 323 340 352 352 349 351 357 6 9 6 0 349 328 299 276 257 247 242 238 236 237 239 243 245 246 248 251 253 253 251 252 251 252 255 255 251 244 241 243 245 247 249 249 248 247 247 243 239 237 240 243 243 241 241 248 255 252 245 248 253 251 244 241 242 248 254 256 255 254 256 254 251 250
204 203 198 196 196 198 202 205 209 222 242 272 306 329 341 345 346 349 357 4 6 4 2 358 351 330 302 278 263 255 245 236 233 234 237 243 246 249 251 252 252 251 251 252 253 254 252 249 247 246 247 247 246 248 249 246 246 246 244 241 238 239 241 239 239 239 244 253 258 255 248 247 252 254 254 253 252 253 254 252 251 254 254 252 251
213 210 204 203 206 208 210 212 216 223 236 260 287 313 328 340 345 349 356 3 3 0 359 2 1 350 326 283 256 248 246 241 235 232 233 237 240 243 247 249 251 251 250 252 253 253 249 245 247 247 247 247 244 243 246 246 245 245 242 239 238 239 238 235 236 240 244 249 256 259 252 245 246 251 257 262 261 257 253 249 249 252 253 252 251
218 214 211 213 218 218 219 220 222 224 233 251 269 292 316 337 343 344 351 360 1 358 358 3 1 351 340 311 275 249 239 232 227 228 229 235 238 238 240 243 246 249 249 249 249 249 246 242 244 246 245 246 243 240 242 244 245 243 241 238 239 241 238 235 237 240 242 246 252 255 250 245 247 250 254 259 259 257 257 255 253 254 253 251 249
219 214 214 219 223 223 224 224 225 226 229 240 256 277 303 327 334 336 343 354 359 356 358 3 359 347 333 312 292 271 253 236 220 215 217 225 232 233 234 236 239 243 244 244 243 243 244 242 241 242 242 243 243 240 241 242 242 244 245 243 242 244 241 236 236 238 238 239 243 249 249 246 249 253 256 261 261 255 254 259 260 258 255 250 245
220 217 220 225 226 225 227 229 231 230 227 234 249 268 290 310 323 330 337 348 356 356 357 2 1 353 335 313 299 279 263 252 235 216 210 215 223 226 226 226 227 228 227 231 236 238 239 237 232 232 233 237 241 243 242 240 240 243 246 244 243 245 246 241 237 237 234 232 235 242 246 244 244 247 251 260 266 261 258 262 263 261 260 253 246
219 225 231 237 235 230 232 236 237 234 230 233 243 260 278 294 310 323 332 341 353 355 354 360 6 6 354 331 315 296 275 261 244 226 210 206 211 214 213 215 213 212 210 210 218 226 232 231 227 227 229 233 239 244 244 239 235 240 244 245 247 249 250 246 240 236 230 231 238 239 241 243 242 243 248 258 270 274 272 270 267 264 261 257 251
212 224 235 242 241 237 238 242 243 240 236 236 240 253 270 284 298 311 323 333 349 354 350 355 8 16 14 6 2 350 321 285 258 237 214 196 191 185 183 189 189 192 195 191 198 213 227 235 234 233 231 231 235 240 245 243 235 236 240 244 248 251 254 249 241 234 230 236 244 237 238 245 245 245 249 256 266 275 275 272 267 261 259 259 257
209 215 226 233 236 237 239 245 246 242 238 235 238 248 258 270 281 293 310 323 341 350 345 349 5 18 24 24 26 28 16 355 329 251 207 187 184 178 171 167 162 162 159 154 161 174 198 230 244 247 242 234 234 238 243 245 238 233 234 237 238 240 245 241 232 230 231 240 247 242 242 246 248 248 249 251 258 265 268 265 256 249 253 259 256
223 225 226 226 230 235 241 244 244 241 235 231 237 244 248 253 261 270 284 304 327 342 339 343 1 18 28 28 29 37 36 26 26 46 138 161 172 176 171 163 158 158 152 147 146 143 145 153 166 183 203 211 214 222 229 232 231 229 229 232 236 241 246 246 238 234 236 243 250 250 248 247 249 253 254 255 258 262 265 264 261 257 253 256 255
Height
3147 3148 3150 3151 3152 3153 3154 3156 3157 3157 3157 3158 3158 3159 3159 3159 3160 3160 3160 3160 3160 3160 3161 3161 3161 3161 3161 3161 3161 3160 3160 3160 3160 3160 3160 3161 3161 3161 3162 3162 3163 3163 3164 3165 3166 3168 3169 3170 3171 3172 3172 3173 3174 3175 3175 3176 3176 3177 3177 3178 3178 3179 3179 3179 3179 3180 3180 3180 3180 3180 3179 3179 3179 3178 3178 3177 3176 3175 3175 3174 3173 3172 3170 3168 3167
3148 3148 3150 3151 3151 3153 3154 3156 3156 3157 3158 3158 3158 3159 3159 3159 3160 3160 3160 3160 3160 3161 3161 3161 3161 3161 3161 3161 3161 3161 3160 3160 3160 3160 3161 3161 3161 3162 3162 3163 3163 3164 3164 3165 3166 3167 3169 3170 3171 3172 3173 3174 3174 3175 3176 3176 3177 3177 3178 3178 3179 3179 3180 3180 3180 3181 3181 3181 3181 3181 3180 3180 3180 3180 3179 3178 3177 3177 3176 3175 3174 3173 3172 3170 3169
3148 3149 3149 3150 3151 3152 3154 3155 3156 3157 3157 3158 3158 3159 3159 3160 3160 3160 3160 3160 3161 3161 3161 3161 3161 3161 3161 3161 3161 3161 3160 3160 3160 3160 3161 3161 3161 3162 3162 3163 3163 3164 3164 3165 3166 3167 3169 3170 3171 3172 3173 3174 3175 3175 3176 3176 3177 3178 3178 3179 3180 3180 3181 3181 3181 3181 3182 3182 3182 3182 3182 3181 3181 3181 3180 3179 3179 3178 3178 3177 3176 3175 3173 3172 3171
3147 3148 3149 3149 3150 3152 3153 3155 3156 3157 3157 3158 3158 3159 3159 3160 3160 3160 3160 3161 3161 3161 3161 3161 3161 3161 3161 3161 3161 3160 3160 3160 3160 3160 3161 3161 3162 3162 3162 3163 3163 3164 3164 3165 3166 3168 3169 3170 3171 3172 3173 3174 3175 3175 3176 3176 3177 3178 3179 3179 3180 3181 3181 3182 3182 3182 3183 3183 3183 3183 3183 3182 3182 3181 3181 3180 3180 3180 3179 3178 3177 3176 3175 3174 3173
3147 3148 3148 3149 3149 3151 3153 3154 3156 3157 3157 3158 3158 3159 3160 3160 3161 3161 3161 3161 3161 3161 3161 3161 3161 3161 3161 3161 3160 3160 3160 3160 3160 3160 3161 3161 3162 3162 3162 3163 3163 3164 3164 3165 3166 3168 3169 3170 3171 3173 3174 3174 3175 3175 3176 3177 3177 3178 3179 3180 3180 3181 3182 3182 3183 3183 3183 3183 3183 3184 3184 3183 3183 3182 3182 3182 3182 3181 3180 3180 3178 3178 3176 3175 3175
3146 3147 3148 3148 3149 3151 3153 3154 3156 3156 3157 3158 3158 3159 3160 3160 3161 3161 3161 3161 3161 3162 3161 3161 3161 3161 3161 3161 3160 3160 3160 3160 3160 3160 3161 3161 3162 3162 3162 3163 3163 3164 3164 3165 3167 3168 3169 3170 3171 3173 3174 3174 3175 3175 3176 3177 3177 3178 3179 3180 3181 3182 3183 3183 3184 3184 3184 3184 3184 3184 3185 3184 3184 3183 3183 3183 3183 3182 3182 3181 3180 3179 3178 3177 3176
3145 3147 3148 3149 3149 3151 3152 3154 3155 3156 3156 3157 3158 3158 3159 3160 3160 3161 3161 3161 3161 3162 3162 3162 3162 3162 3161 3161 3160 3160 3160 3160 3160 3160 3161 3161 3161 3162 3162 3163 3163 3164 3165 3165 3166 3168 3169 3170 3171 3172 3174 3174 3175 3175 3176 3177 3177 3178 3179 3180 3181 3182 3183 3184 3184 3185 3185 3185 3185 3185 3185 3185 3185 3184 3184 3184 3184 3184 3183 3182 3181 3180 3180 3179 3178
3145 3147 3148 3149 3150 3150 3152 3153 3154 3155 3155 3156 3157 3157 3158 3159 3160 3160 3161 3161 3161 3162 3162 3162 3162 3162 3161 3161 3161 3160 3160 3160 3161 3161 3161 3161 3161 3161 3162 3162 3162 3163 3165 3165 3166 3168 3169 3170 3171 3172 3173 3174 3174 3175 3176 3176 3177 3178 3179 3180 3181 3182 3183 3184 3185 3186 3186 3185 3186 3186 3186 3186 3186 3185 3185 3185 3185 3185 3185 3184 3183 3182 3181 3180 3180
3145 3146 3148 3149 3149 3150 3151 3152 3153 3154 3154 3155 3156 3157 3158 3159 3160 3160 3161 3161 3161 3162 3162 3162 3162 3162 3162 3161 3161 3161 3161 3161 3161 3161 3161 3161 3161 3161 3161 3162 3162 3163 3165 3165 3166 3167 3169 3170 3171 3172 3173 3174 3174 3175 3175 3176 3177 3178 3179 3180 3181 3182 3183 3185 3185 3186 3187 3186 3187 3187 3187 3187 3186 3186 3186 3186 3186 3186 3186 3185 3184 3183 3183 3182 3181
3146 3146 3147 3149 3149 3150 3151 3152 3153 3154 3154 3155 3156 3157 3158 3159 3160 3161 3161 3161 3161 3162 3162 3162 3162 3162 3162 3162 3161 3161 3161 3161 3161 3161 3161 3161 3161 3161 3161 3161 3162 3163 3164 3165 3166 3167 3168 3170 3170 3171 3173 3173 3174 3174 3175 3176 3177 3178 3179 3180 3181 3182 3183 3185 3186 3187 3187 3187 3187 3188 3188 3188 3187 3187 3187 3187 3187 3188 3187 3186 3186 3185 3184 3183 3183
3149 3148 3147 3148 3149 3150 3151 3152 3153 3154 3154 3155 3156 3157 3158 3159 3160 3161 3161 3161 3161 3161 3162 3162 3162 3162 3162 3162 3162 3162 3161 3161 3161 3161 3161 3161 3161 3161 3161 3161 3162 3163 3164 3165 3166 3167 3168 3169 3170 3171 3172 3173 3173 3174 3175 3175 3176 3177 3178 3180 3181 3182 3183 3184 3186 3186 3187 3188 3188 3188 3189 3189 3188 3188 3189 3188 3188 3189 3188 3188 3187 3186 3186 3185 3184
3149 3149 3149 3149 3149 3150 3151 3152 3153 3154 3154 3155 3156 3157 3158 3160 3161 3161 3162 3162 3161 3161 3162 3162 3162 3162 3162 3162 3162 3162 3162 3161 3161 3161 3161 3161 3161 3161 3161 3161 3162 3163 3163 3164 3165 3166 3167 3168 3169 3171 3172 3173 3173 3174 3175 3175 3175 3176 3178 3179 3180 3181 3183 3184 3185 3186 3187 3188 3188 3189 3189 3189 3189 3189 3190 3190 3189 3190 3190 3189 3188 3188 3187 3186 3186
3147 3147 3149 3149 3149 3150 3151 3153 3153 3154 3155 3156 3156 3157 3158 3160 3160 3161 3162 3162 3162 3162 3162 3162 3162 3162 3162 3162 3162 3162 3162 3161 3161 3160 3161 3161 3161 3161 3161 3161 3161 3162 3163 3164 3164 3165 3167 3168 3169 3170 3171 3173 3173 3173 3174 3174 3175 3176 3177 3178 3179 3180 3182 3183 3185 3186 3187 3188 3189 3189 3190 3190 3190 3190 3190 3190 3190 3191 3190 3190 3190 3189 3189 3188 3187
3148 3147 3146 3147 3148 3150 3152 3153 3154 3155 3155 3156 3157 3158 3158 3159 3160 3161 3162 3162 3162 3162 3162 3162 3162 3162 3162 3162 3162 3162 3161 3161 3160 3160 3160 3160 3161 3161 3161 3161 3161 3161 3162 3163 3164 3165 3166 3167 3168 3169 3170 3172 3172 3172 3173 3174 3174 3175 3176 3177 3178 3180 3182 3183 3184 3185 3187 3188 3189 3189 3190 3190 3190 3190 3191 3191 3191 3191 3191 3191 3191 3190 3190 3189 3188
3147 3147 3145 3145 3147 3149 3152 3154 3154 3155 3156 3157 3157 3158 3158 3159 3159 3161 3162 3162 3162 3162 3162 3162 3162 3162 3162 3162 3162 3161 3160 3160 3159 3159 3160 3160 3160 3161 3161 3161 3161 3161 3162 3162 3163 3164 3165 3166 3167 3168 3170 3171 3172 3172 3173 3173 3174 3175 3175 3176 3177 3179 3182 3183 3184 3185 3187 3188 3189 3190 3190 3190 3190 3191 3191 3191 3191 3192 3192 3192 3192 3191 3191 3191 3190
3146 3145 3143 3144 3147 3148 3152 3154 3154 3155 3156 3157 3157 3158 3158 3159 3159 3160 3162 3162 3162 3162 3162 3162 3162 3162 3162 3162 3161 3160 3160 3159 3159 3159 3159 3160 3160 3161 3161 3161 3162 3162 3162 3162 3163 3164 3165 3166 3167 3168 3169 3170 3171 3171 3172 3172 3173 3174 3175 3175 3176 3178 3181 3183 3184 3185 3186 3187 3189 3189 3190 3190 3190 3191 3191 3191 3192 3192 3192 3192 3192 3192 3192 3192 3191
3146 3145 3142 3143 3146 3148 3152 3153 3155 3156 3156 3157 3157 3158 3159 3159 3159 3160 3161 3162 3162 3162 3162 3162 3162 3162 3161 3161 3160 3160 3159 3159 3159 3159 3159 3159 3160 3160 3161 3161 3162 3162 3162 3162 3163 3163 3164 3165 3166 3167 3168 3169 3170 3170 3171 3172 3172 3173 3173 3174 3175 3177 3180 3182 3183 3184 3185 3187 3188 3189 3189 3189 3190 3191 3191 3191 3192 3192 3193 3193 3193 3193 3193 3193 3192
3146 3146 3144 3145 3147 3148 3151 3154 3155 3156 3156 3157 3157 3158 3158 3159 3159 3160 3160 3161 3161 3162 3162 3162 3162 3161 3161 3161 3160 3159 3159 3158 3158 3158 3158 3159 3159 3160 3161 3161 3161 3162 3162 3162 3163 3163 3164 3165 3166 3166 3167 3168 3169 3170 3170 3171 3171 3172 3172 3173 3173 3176 3179 3181 3182 3183 3184 3186 3187 3188 3188 3189 3190 3190 3191 3191 3192 3192 3193 3193 3193 3193 3193 3193 3193
3146 3145 3145 3147 3148 3149 3153 3155 3156 3156 3156 3157 3157 3158 3158 3158 3159 3159 3160 3160 3161 3161 3161 3161 3161 3161 3160 3160 3159 3159 3158 3158 3157 3157 3158 3158 3159 3159 3160 3160 3161 3161 3162 3162 3162 3163 3163 3164 3165 3165 3166 3167 3168 3169 3169 3170 3170 3171 3171 3171 3171 3174 3178 3180 3181 3182 3183 3184 3186 3187 3187 3188 3189 3190 3190 3191 3191 3192 3192 3193 3193 3194 3194 3194 3193
3145 3145 3146 3148 3149 3151 3154 3155 3155 3156 3156 3156 3157 3157 3158 3158 3159 3159 3159 3160 3160 3161 3161 3161 3161 3160 3160 3159 3159 3158 3158 3157 3157 3157 3157 3157 3158 3158 3159 3159 3160 3161 3161 3161 3162 3162 3162 3163 3164 3164 3165 3165 3166 3167 3168 3168 3169 3170 3170 3170 3170 3172 3176 3178 3180 3181 3182 3183 3184 3185 3187 3187 3188 3189 3189 3190 3191 3191 3192 3192 3193 3194 3194 3194 3194
3144 3145 3147 3149 3150 3152 3154 3154 3155 3155 3155 3156 3156 3157 3157 3158 3158 3159 3159 3159 3160 3160 3160 3160 3160 3159 3159 3159 3158 3157 3157 3156 3156 3156 3156 3157 3157 3157 3158 3158 3159 3160 3160 3160 3161 3161 3161 3161 3162 3163 3164 3164 3164 3165 3166 3167 3167 3168 3169 3168 3169 3170 3174 3177 3178 3179 3180 3181 3183 3184 3185 3186 3187 3187 3188 3189 3190 3191 3191 3192 3193 3193 3194 3194 3194
3142 3144 3146 3148 3150 3151 3152 3153 3154 3154 3155 3156 3156 3157 3157 3158 3158 3158 3159 3159 3159 3159 3159 3159 3159 3159 3159 3158 3158 3157 3156 3155 3155 3156 3156 3156 3156 3156 3156 3157 3158 3159 3159 3159 3159 3159 3159 3160 3160 3161 3162 3162 3163 3163 3164 3165 3166 3166 3167 3167 3167 3168 3172 3176 3177 3177 3178 3180 3181 3182 3183 3185 3186 3186 3187 3188 3189 3190 3191 3191 3192 3193 3193 3193 3194
3142 3144 3145 3147 3149 3150 3152 3153 3153 3154 3155 3156 3156 3157 3157 3157 3158 3158 3158 3158 3158 3158 3158 3158 3158 3158 3158 3157 3157 3156 3155 3155 3155 3155 3155 3155 3155 3155 3156 3157 3157 3157 3158 3158 3158 3158 3158 3158 3159 3159 3160 3161 3161 3162 3162 3163 3164 3165 3165 3165 3165 3167 3170 3174 3175 3175 3177 3178 3180 3181 3182 3183 3184 3185 3186 3187 3188 3189 3190 3190 3191 3192 3192 3193 3193
3142 3144 3146 3148 3149 3150 3151 3152 3153 3154 3155 3155 3156 3156 3157 3157 3157 3157 3157 3157 3157 3158 3158 3158 3157 3157 3157 3156 3156 3155 3154 3154 3154 3154 3154 3154 3154 3154 3155 3156 3156 3156 3157 3157 3157 3157 3157 3157 3157 3158 3158 3159 3160 3160 3161 3161 3162 3163 3164 3164 3164 3165 3169 3171 3172 3173 3175 3177 3178 3179 3181 3182 3183 3184 3184 3185 3186 3187 3188 3189 3190 3191 3191 3192 3193
3142 3144 3147 3148 3149 3150 3151 3152 3153 3154 3154 3155 3155 3156 3156 3156 3156 3156 3157 3157 3157 3157 3157 3157 3156 3156 3155 3155 3155 3154 3154 3153 3153 3153 3153 3153 3153 3154 3154 3155 3155 3155 3156 3156 3156 3156 3156 3156 3156 3156 3157 3157 3158 3159 3160 3160 3161 3162 3163 3163 3163 3164 3167 3169 3170 3171 3173 3175 3176 3178 3179 3180 3181 3182 3183 3184 3185 3186 3187 3188 3188 3189 3190 3191 3192
3142 3144 3147 3148 3149 3150 3151 3152 3153 3153 3154 3154 3155 3155 3155 3155 3155 3155 3156 3156 3156 3156 3156 3156 3155 3154 3154 3154 3153 3153 3152 3152 3152 3152 3152 3152 3153 3153 3153 3154 3154 3154 3155 3155 3155 3155 3155 3155 3155 3156 3156 3156 3156 3157 3158 3159 3160 3160 3161 3162 3162 3163 3165 3167 3169 3169 3171 3172 3174 3176 3177 3178 3179 3180 3181 3182 3183 3184 3185 3186 3187 3188 3189 3189 3190
3143 3144 3146 3147 3149 3150 3151 3152 3153 3153 3153 3154 3154 3155 3155 3155 3154 3155 3155 3155 3155 3154 3154 3154 3153 3153 3153 3152 3152 3151 3151 3151 3151 3152 3151 3152 3152 3152 3152 3153 3153 3154 3154 3154 3154 3155 3155 3155 3155 3155 3155 3155 3156 3156 3156 3157 3158 3159 3160 3161 3161 3161 3163 3166 3167 3167 3169 3170 3172 3174 3175 3177 3177 3178 3179 3180 3181 3182 3183 3184 3185 3186 3187 3188 3189
3142 3144 3145 3147 3148 3149 3151 3152 3152 3152 3153 3153 3154 3154 3154 3154 3153 3154 3154 3154 3154 3153 3153 3153 3152 3152 3151 3151 3150 3150 3150 3150 3151 3151 3151 3151 3151 3151 3151 3152 3153 3153 3153 3153 3154 3154 3154 3154 3154 3154 3155 3155 3155 3155 3155 3156 3157 3157 3158 3160 3160 3160 3161 3164 3165 3166 3167 3168 3170 3172 3173 3175 3176 3177 3177 3178 3179 3180 3181 3182 3183 3184 3185 3186 3187
3141 3144 3145 3146 3147 3149 3151 3152 3152 3152 3152 3153 3154 3154 3154 3153 3152 3152 3153 3153 3152 3151 3151 3151 3151 3150 3150 3149 3149 3148 3148 3149 3150 3150 3149 3150 3150 3150 3151 3151 3152 3152 3152 3153 3153 3153 3154 3154 3154 3154 3154 3154 3155 3155 3155 3155 3156 3156 3157 3158 3159 3159 3161 3162 3164 3164 3166 3167 3168 3169 3171 3172 3173 3174 3176 3176 3177 3178 3179 3180 3182 3182 3183 3184 3185
3141 3144 3146 3145 3146 3148 3150 3151 3151 3151 3152 3152 3153 3153 3153 3152 3151 3151 3151 3152 3151 3150 3149 3149 3149 3149 3148 3148 3147 3147 3147 3148 3149 3149 3148 3149 3149 3149 3150 3150 3151 3151 3151 3152 3152 3153 3153 3153 3153 3153 3153 3153 3154 3154 3154 3155 3155 3156 3156 3157 3157 3158 3159 3160 3162 3163 3164 3165 3166 3168 3169 3170 3171 3172 3174 3175 3175 3176 3177 3178 3180 3180 3181 3182 3183
3139 3142 3144 3145 3146 3147 3148 3150 3150 3150 3151 3152 3152 3152 3152 3151 3150 3150 3150 3150 3150 3149 3148 3148 3148 3147 3147 3146 3146 3146 3146 3148 3148 3148 3147 3147 3148 3148 3148 3149 3149 3150 3150 3151 3151 3152 3152 3153 3153 3153 3153 3153 3153 3153 3154 3155 3155 3155 3155 3156 3156 3157 3157 3158 3159 3161 3162 3163 3165 3166 3167 3169 3170 3171 3172 3173 3174 3175 3176 3177 3178 3178 3179 3180 3181
3138 3141 3143 3144 3146 3146 3146 3148 3149 3149 3150 3151 3151 3151 3151 3150 3149 3149 3149 3149 3149 3148 3147 3146 3146 3145 3145 3145 3145 3145 3146 3147 3147 3146 3146 3146 3147 3147 3147 3147 3148 3148 3149 3149 3150 3151 3151 3152 3152 3152 3152 3152 3153 3153 3153 3154 3154 3155 3154 3154 3154 3155 3156 3157 3157 3158 3160 3162 3163 3164 3166 3167 3168 3169 3170 3171 3172 3173 3174 3175 3176 3177 3177 3178 3179
3138 3141 3143 3143 3143 3143 3143 3146 3147 3148 3149 3150 3150 3150 3150 3149 3149 3148 3148 3148 3147 3146 3146 3145 3144 3144 3144 3144 3144 3144 3145 3145 3146 3145 3145 3145 3146 3146 3145 3146 3146 3147 3147 3147 3148 3149 3150 3151 3151 3151 3151 3151 3153 3153 3153 3153 3153 3153 3153 3153 3153 3153 3155 3156 3156 3157 3158 3160 3161 3162 3164 3165 3167 3168 3169 3170 3171 3171 3172 3173 3174 3175 3175 3176 3177
3139 3141 3142 3142 3141 3141 3142 3144 3146 3147 3149 3150 3150 3150 3149 3149 3148 3148 3147 3146 3146 3145 3144 3144 3143 3143 3143 3143 3143 3143 3143 3144 3144 3143 3144 3144 3144 3144 3144 3144 3144 3145 3145 3145 3146 3147 3148 3149 3149 3149 3149 3150 3152 3152 3153 3152 3152 3152 3152 3152 3152 3153 3153 3155 3156 3156 3157 3158 3159 3160 3161 3163 3165 3166 3168 3169 3169 3170 3170 3171 3172 3173 3173 3174 3175
3137 3138 3139 3140 3139 3140 3142 3144 3146 3147 3148 3149 3149 3149 3149 3148 3148 3147 3146 3145 3144 3143 3142 3142 3142 3142 3143 3142 3142 3142 3142 3142 3142 3142 3142 3143 3143 3142 3142 3142 3142 3143 3143 3144 3144 3145 3146 3147 3148 3147 3148 3150 3150 3151 3151 3151 3151 3151 3152 3152 3152 3152 3151 3152 3154 3155 3155 3156 3157 3158 3159 3161 3163 3165 3166 3167 3167 3168 3168 3169 3170 3171 3172 3172 3173
3134 3135 3136 3137 3138 3140 3142 3144 3145 3146 3148 3148 3148 3148 3148 3147 3147 3146 3144 3143 3142 3141 3140 3140 3140 3141 3141 3142 3141 3141 3141 3141 3141 3141 3141 3141 3141 3141 3140 3141 3141 3141 3142 3142 3143 3144 3145 3146 3146 3147 3147 3148 3149 3149 3149 3149 3149 3150 3151 3151 3151 3151 3150 3151 3152 3153 3154 3154 3156 3156 3157 3159 3161 3162 3163 3164 3165 3166 3167 3167 3168 3169 3170 3171 3171
3133 3133 3134 3136 3138 3140 3141 3143 3144 3146 3146 3147 3147 3147 3147 3146 3145 3144 3143 3141 3140 3139 3138 3138 3138 3139 3140 3140 3140 3140 3140 3139 3140 3140 3140 3140 3139 3139 3139 3139 3139 3140 3140 3141 3142 3142 3143 3144 3145 3146 3146 3147 3147 3147 3147 3147 3148 3149 3149 3149 3150 3150 3150 3150 3151 3152 3153 3154 3155 3155 3156 3157 3159 3160 3161 3162 3163 3164 3165 3166 3167 3167 3168 3169 3170
3133 3133 3134 3136 3137 3139 3140 3142 3143 3145 3145 3146 3146 3146 3146 3146 3145 3144 3143 3141 3139 3138 3137 3137 3137 3137 3138 3138 3138 3138 3138 3138 3138 3139 3139 3138 3138 3138 3138 3138 3138 3138 3139 3140 3140 3141 3142 3143 3144 3144 3145 3145 3145 3145 3146 3146 3147 3147 3148 3148 3148 3149 3149 3149 3149 3150 3151 3152 3154 3154 3154 3155 3156 3158 3159 3160 3161 3162 3163 3164 3165 3166 3166 3167 3168
3132 3132 3134 3135 3136 3138 3139 3141 3142 3143 3144 3145 3145 3146 3145 3145 3145 3144 3143 3141 3139 3138 3137 3137 3136 3136 3136 3136 3136 3136 3136 3136 3137 3137 3137 3137 3136 3136 3137 3137 3137 3137 3138 3138 3139 3140 3141 3142 3143 3143 3144 3144 3144 3145 3145 3145 3146 3146 3147 3147 3147 3147 3148 3148 3148 3149 3150 3150 3151 3152 3153 3154 3154 3156 3157 3159 3160 3161 3162 3163 3164 3164 3165 3165 3166
3132 3133 3134 3135 3136 3138 3139 3140 3142 3142 3143 3143 3143 3144 3144 3143 3143 3143 3143 3142 3140 3138 3136 3136 3136 3135 3135 3135 3135 3135 3135 3135 3135 3136 3135 3135 3135 3135 3135 3136 3136 3136 3137 3137 3138 3139 3140 3141 3141 3142 3142 3143 3143 3144 3144 3144 3145 3145 3146 3146 3146 3146 3147 3147 3148 3148 3149 3149 3150 3150 3151 3152 3153 3154 3155 3157 3158 3159 3160 3161 3162 3163 3164 3164 3165
3133 3134 3135 3135 3136 3138 3139 3140 3141 3141 3142 3142 3142 3142 3142 3142 3142 3141 3141 3141 3140 3138 3137 3135 3135 3135 3135 3135 3135 3135 3134 3134 3134 3134 3134 3134 3134 3134 3134 3134 3135 3135 3135 3136 3137 3137 3138 3139 3140 3140 3141 3141 3142 3143 3143 3143 3143 3144 3145 3144 3145 3145 3146 3146 3147 3147 3148 3148 3148 3149 3150 3150 3151 3153 3154 3155 3156 3157 3158 3159 3160 3161 3162 3163 3163
3132 3133 3134 3135 3136 3137 3138 3139 3140 3140 3141 3141 3141 3141 3141 3141 3140 3140 3139 3139 3138 3138 3137 3136 3135 3134 3134 3134 3134 3134 3134 3134 3134 3134 3133 3133 3133 3133 3133 3133 3133 3133 3134 3135 3135 3136 3136 3138 3138 3139 3139 3140 3141 3141 3141 3142 3142 3143 3143 3144 3144 3144 3145 3145 3146 3146 3147 3147 3147 3148 3149 3149 3149 3150 3151 3152 3154 3154 3155 3156 3157 3158 3159 3160 3161
3131 3132 3133 3134 3135 3136 3137 3138 3139 3139 3140 3140 3140 3140 3140 3140 3140 3139 3138 3137 3136 3136 3135 3135 3135 3134 3134 3134 3134 3133 3133 3133 3133 3134 3133 3133 3132 3132 3132 3132 3132 3132 3133 3133 3134 3135 3136 3137 3137 3138 3138 3139 3140 3140 3140 3141 3141 3142 3143 3143 3143 3144 3144 3144 3144 3144 3145 3146 3146 3146 3147 3147 3148 3148 3148 3150 3151 3152 3153 3154 3154 3155 3156 3158 3159
3130 3131 3132 3133 3134 3135 3136 3137 3138 3138 3139 3139 3139 3140 3140 3140 3139 3138 3138 3137 3136 3135 3135 3134 3134 3134 3134 3134 3134 3133 3133 3132 3132 3132 3132 3131 3131 3131 3130 3130 3130 3131 3131 3132 3133 3134 3135 3136 3137 3137 3138 3138 3139 3139 3139 3140 3140 3141 3141 3142 3142 3142 3143 3143 3143 3143 3144 3145 3145 3145 3145 3146 3146 3146 3147 3147 3148 3150 3151 3151 3152 3153 3154 3155 3156
3129 3130 3132 3133 3134 3135 3135 3136 3137 3137 3138 3138 3139 3139 3140 3140 3139 3139 3138 3137 3136 3135 3134 3133 3133 3133 3133 3133 3133 3133 3133 3133 3132 3132 3131 3130 3130 3130 3130 3129 3129 3129 3130 3131 3133 3133 3133 3134 3135 3136 3136 3137 3138 3138 3138 3139 3139 3140 3140 3140 3141 3141 3142 3142 3143 3143 3144 3144 3144 3144 3144 3144 3144 3144 3145 3145 3146 3147 3148 3149 3150 3151 3151 3152 3153
3129 3130 3131 3133 3133 3134 3134 3135 3136 3137 3137 3137 3138 3139 3139 3139 3139 3139 3138 3137 3136 3135 3134 3133 3132 3132 3132 3132 3132 3132 3133 3133 3133 3132 3131 3130 3129 3129 3129 3129 3129 3129 3129 3130 3131 3131 3132 3132 3133 3134 3134 3135 3135 3136 3136 3137 3138 3138 3138 3139 3139 3140 3140 3141 3142 3142 3143 3143 3143 3143 3143 3143 3143 3144 3144 3144 3144 3145 3146 3146 3148 3149 3150 3150 3151
3128 3130 3131 3132 3132 3133 3133 3134 3135 3136 3136 3137 3137 3138 3139 3139 3139 3139 3138 3138 3137 3136 3134 3133 3132 3131 3131 3131 3131 3131 3131 3132 3132 3132 3131 3130 3129 3129 3129 3128 3128 3128 3129 3129 3130 3130 3131 3131 3132 3132 3133 3133 3134 3134 3135 3135 3136 3136 3137 3137 3138 3139 3139 3140 3141 3141 3142 3142 3142 3142 3142 3142 3142 3143 3143 3142 3143 3144 3144 3145 3146 3146 3147 3148 3149
3127 3129 3130 3130 3131 3132 3132 3133 3134 3135 3135 3136 3136 3137 3138 3138 3138 3138 3138 3137 3137 3136 3135 3134 3133 3131 3131 3130 3130 3130 3130 3131 3131 3131 3131 3130 3129 3129 3128 3128 3128 3128 3128 3128 3129 3129 3129 3130 3130 3131 3132 3132 3133 3133 3133 3134 3135 3135 3135 3136 3137 3138 3138 3139 3139 3140 3140 3140 3141 3141 3141 3141 3141 3142 3142 3142 3142 3142 3142 3143 3143 3144 3145 3145 3146
3126 3128 3129 3129 3130 3131 3131 3132 3133 3134 3134 3134 3135 3136 3136 3137 3137 3138 3137 3137 3137 3136 3135 3134 3133 3132 3131 3130 3130 3129 3129 3130 3130 3130 3130 3130 3129 3129 3128 3128 3127 3127 3127 3128 3128 3128 3128 3129 3129 3130 3131 3131 3132 3132 3132 3133 3133 3134 3135 3135 3136 3136 3137 3138 3138 3139 3139 3140 3140 3140 3140 3140 3141 3141 3141 3141 3141 3141 3141 3141 3141 3141 3142 3143 3144
3124 3126 3127 3128 3129 3129 3130 3130 3131 3132 3133 3133 3133 3134 3134 3135 3137 3137 3137 3137 3137 3136 3136 3134 3133 3132 3131 3131 3130 3130 3129 3129 3129 3129 3129 3129 3129 3128 3128 3128 3127 3127 3127 3127 3128 3128 3128 3128 3128 3129 3129 3130 3131 3131 3132 3132 3133 3133 3134 3135 3135 3136 3136 3137 3137 3138 3139 3139 3139 3139 3139 3139 3139 3140 3140 3140 3139 3139 3139 3138 3138 3139 3140 3140 3141
3123 3124 3125 3126 3127 3128 3128 3129 3129 3130 3131 3131 3132 3132 3132 3134 3135 3136 3137 3137 3137 3136 3135 3134 3133 3132 3132 3131 3130 3130 3129 3129 3129 3129 3128 3128 3128 3128 3128 3128 3127 3127 3127 3127 3127 3128 3128 3128 3128 3129 3129 3129 3130 3130 3131 3132 3132 3133 3134 3134 3135 3135 3136 3136 3137 3137 3137 3137 3138 3138 3138 3138 3138 3139 3138 3137 3137 3137 3137 3138 3138 3138 3138 3138 3138